When you browse on this site, cookies collect data to enhance your experience and personalize the content and advertising you see.
Visit our Privacy Policy to learn more. By continuing to use the site, you agree to this use of cookies and data.

Previsão horária em Pogoreloe

Hoje, 11 Agosto, Terça-feira

Tempo Temperatura Precipitação Vento Pressão Humidade
00:00 +12°C° 0 mm 2 m/s 740 mmHg 95%
01:00 +10°C° 0 mm 2 m/s 740 mmHg 96%
02:00 +10°C° 0 mm 2 m/s 740 mmHg 98%
03:00 +10°C° 0 mm 2 m/s 740 mmHg 98%
04:00 +10°C° 0 mm 2 m/s 740 mmHg 98%
05:00 +9°C° 0 mm 2 m/s 740 mmHg 98%
06:00 +10°C° 0 mm 2 m/s 740 mmHg 95%
07:00 +11°C° 0 mm 3 m/s 740 mmHg 92%
08:00 +12°C° 0 mm 3 m/s 740 mmHg 90%
09:00 +13°C° 0.1 mm 3 m/s 740 mmHg 83%
10:00 +14°C° 0.1 mm 4 m/s 740 mmHg 77%
11:00 +15°C° 0.1 mm 4 m/s 740 mmHg 71%
12:00 +15°C° 0.2 mm 4 m/s 740 mmHg 73%
13:00 +15°C° 0.2 mm 4 m/s 740 mmHg 74%
14:00 +14°C° 0.2 mm 4 m/s 741 mmHg 76%
15:00 +14°C° 0.1 mm 4 m/s 740 mmHg 77%
16:00 +14°C° 0.1 mm 4 m/s 740 mmHg 78%
17:00 +13°C° 0.1 mm 4 m/s 740 mmHg 80%
18:00 +13°C° 0 mm 4 m/s 740 mmHg 82%
19:00 +12°C° 0 mm 3 m/s 740 mmHg 83%
20:00 +12°C° 0 mm 3 m/s 740 mmHg 85%
21:00 +12°C° 0 mm 3 m/s 740 mmHg 87%
22:00 +11°C° 0 mm 3 m/s 740 mmHg 88%
23:00 +11°C° 0 mm 4 m/s 740 mmHg 89%

Amanhã, 12 Agosto, Quarta-feira

Tempo Temperatura Precipitação Vento Pressão Humidade
00:00 +11°C° 0 mm 4 m/s 740 mmHg 90%
01:00 +11°C° 0 mm 3 m/s 740 mmHg 91%
02:00 +12°C° 0 mm 3 m/s 740 mmHg 92%
03:00 +12°C° 0.1 mm 4 m/s 740 mmHg 92%
04:00 +12°C° 0.1 mm 4 m/s 740 mmHg 92%
05:00 +12°C° 0.1 mm 4 m/s 740 mmHg 92%
06:00 +12°C° 0 mm 4 m/s 740 mmHg 90%
07:00 +12°C° 0 mm 4 m/s 740 mmHg 89%
08:00 +12°C° 0 mm 4 m/s 740 mmHg 88%
09:00 +13°C° 0 mm 4 m/s 741 mmHg 83%
10:00 +13°C° 0 mm 4 m/s 741 mmHg 78%
11:00 +14°C° 0 mm 4 m/s 741 mmHg 73%
12:00 +17°C° 0.1 mm 4 m/s 741 mmHg 67%
13:00 +18°C° 0.1 mm 4 m/s 741 mmHg 61%
14:00 +19°C° 0.1 mm 4 m/s 741 mmHg 54%
15:00 +18°C° 0.1 mm 4 m/s 741 mmHg 60%
16:00 +17°C° 0.1 mm 3 m/s 741 mmHg 66%
17:00 +17°C° 0.1 mm 3 m/s 741 mmHg 71%
18:00 +15°C° 0.1 mm 2 m/s 741 mmHg 77%
19:00 +14°C° 0.1 mm 2 m/s 741 mmHg 82%
20:00 +13°C° 0.1 mm 2 m/s 742 mmHg 87%
21:00 +12°C° 0 mm 2 m/s 742 mmHg 90%
22:00 +10°C° 0 mm 2 m/s 742 mmHg 92%
23:00 +9°C° 0 mm 2 m/s 741 mmHg 95%

Depois de amanhã, 13 Agosto, Quinta-feira

Tempo Temperatura Precipitação Vento Pressão Humidade
00:00 +9°C° 0 mm 2 m/s 741 mmHg 93%
01:00 +10°C° 0 mm 1 m/s 741 mmHg 90%
02:00 +10°C° 0 mm 1 m/s 741 mmHg 88%
03:00 +10°C° 0 mm 1 m/s 741 mmHg 88%
04:00 +10°C° 0 mm 1 m/s 741 mmHg 87%
05:00 +10°C° 0 mm 1 m/s 741 mmHg 86%
06:00 +10°C° 0 mm 2 m/s 741 mmHg 81%
07:00 +12°C° 0 mm 2 m/s 741 mmHg 76%
08:00 +13°C° 0 mm 2 m/s 741 mmHg 72%
09:00 +14°C° 0 mm 2 m/s 741 mmHg 65%
10:00 +15°C° 0 mm 2 m/s 741 mmHg 59%
11:00 +16°C° 0 mm 3 m/s 741 mmHg 53%
12:00 +16°C° 0 mm 2 m/s 741 mmHg 53%
13:00 +16°C° 0 mm 2 m/s 741 mmHg 52%
14:00 +17°C° 0 mm 2 m/s 740 mmHg 51%
15:00 +16°C° 0 mm 2 m/s 740 mmHg 56%
16:00 +15°C° 0 mm 2 m/s 740 mmHg 61%
17:00 +15°C° 0 mm 2 m/s 740 mmHg 65%
18:00 +14°C° 0 mm 2 m/s 741 mmHg 70%
19:00 +13°C° 0 mm 2 m/s 741 mmHg 76%
20:00 +12°C° 0 mm 2 m/s 741 mmHg 81%
21:00 +10°C° 0 mm 2 m/s 741 mmHg 85%
22:00 +9°C° 0 mm 2 m/s 741 mmHg 88%
23:00 +8°C° 0 mm 2 m/s 741 mmHg 92%

14 Agosto, Sexta-feira

Tempo Temperatura Precipitação Vento Pressão Humidade
00:00 +8°C° 0 mm 1 m/s 741 mmHg 93%
01:00 +8°C° 0 mm 1 m/s 741 mmHg 93%
02:00 +8°C° 0 mm 1 m/s 741 mmHg 94%
03:00 +8°C° 0 mm 1 m/s 741 mmHg 95%
04:00 +7°C° 0 mm 1 m/s 741 mmHg 95%
05:00 +7°C° 0 mm 1 m/s 742 mmHg 96%
06:00 +9°C° 0 mm 2 m/s 742 mmHg 87%
07:00 +12°C° 0 mm 2 m/s 742 mmHg 78%
08:00 +14°C° 0 mm 2 m/s 742 mmHg 69%
09:00 +15°C° 0 mm 2 m/s 742 mmHg 63%
10:00 +17°C° 0 mm 2 m/s 742 mmHg 56%
11:00 +18°C° 0 mm 2 m/s 742 mmHg 50%
12:00 +18°C° 0 mm 2 m/s 742 mmHg 50%
13:00 +19°C° 0 mm 2 m/s 742 mmHg 50%
14:00 +19°C° 0 mm 2 m/s 741 mmHg 50%
15:00 +19°C° 0 mm 2 m/s 741 mmHg 52%
16:00 +18°C° 0 mm 2 m/s 741 mmHg 55%
17:00 +18°C° 0 mm 2 m/s 741 mmHg 57%
18:00 +16°C° 0 mm 1 m/s 741 mmHg 65%
19:00 +14°C° 0 mm 1 m/s 741 mmHg 72%
20:00 +12°C° 0 mm 1 m/s 741 mmHg 79%
21:00 +12°C° 0 mm 1 m/s 741 mmHg 79%
22:00 +12°C° 0 mm 1 m/s 742 mmHg 80%
23:00 +11°C° 0 mm 1 m/s 742 mmHg 80%

15 Agosto, Sábado

Tempo Temperatura Precipitação Vento Pressão Humidade
00:00 +11°C° 0 mm 1 m/s 742 mmHg 81%
01:00 +11°C° 0 mm 1 m/s 742 mmHg 82%
02:00 +10°C° 0 mm 1 m/s 742 mmHg 82%
03:00 +10°C° 0 mm 1 m/s 741 mmHg 83%
04:00 +10°C° 0 mm 1 m/s 741 mmHg 83%
05:00 +10°C° 0 mm 1 m/s 741 mmHg 83%
06:00 +12°C° 0 mm 1 m/s 741 mmHg 77%
07:00 +14°C° 0 mm 1 m/s 741 mmHg 70%
08:00 +16°C° 0 mm 1 m/s 741 mmHg 64%
09:00 +19°C° 0 mm 1 m/s 741 mmHg 59%
10:00 +20°C° 0 mm 1 m/s 741 mmHg 55%
11:00 +22°C° 0 mm 1 m/s 741 mmHg 50%
12:00 +22°C° 0 mm 1 m/s 741 mmHg 51%
13:00 +22°C° 0 mm 1 m/s 741 mmHg 52%
14:00 +22°C° 0 mm 1 m/s 741 mmHg 53%
15:00 +22°C° 0 mm 1 m/s 741 mmHg 56%
16:00 +21°C° 0 mm 1 m/s 741 mmHg 58%
17:00 +21°C° 0 mm 1 m/s 740 mmHg 60%
18:00 +19°C° 0 mm 1 m/s 740 mmHg 68%
19:00 +15°C° 0 mm 0 m/s 740 mmHg 76%
20:00 +13°C° 0 mm 0 m/s 740 mmHg 84%
21:00 +12°C° 0 mm 0 m/s 740 mmHg 85%
22:00 +12°C° 0 mm 0 m/s 741 mmHg 86%
23:00 +12°C° 0 mm 0 m/s 741 mmHg 87%

16 Agosto, Domingo

Tempo Temperatura Precipitação Vento Pressão Humidade
00:00 +11°C° 0 mm 0 m/s 741 mmHg 87%
01:00 +11°C° 0 mm 0 m/s 741 mmHg 88%
02:00 +11°C° 0 mm 0 m/s 741 mmHg 89%
03:00 +11°C° 0 mm 0 m/s 741 mmHg 90%
04:00 +11°C° 0 mm 0 m/s 741 mmHg 90%
05:00 +11°C° 0 mm 0 m/s 741 mmHg 91%
06:00 +13°C° 0 mm 0 m/s 741 mmHg 83%
07:00 +16°C° 0 mm 0 m/s 741 mmHg 75%
08:00 +18°C° 0 mm 0 m/s 742 mmHg 67%
09:00 +20°C° 0 mm 0 m/s 742 mmHg 61%
10:00 +21°C° 0 mm 0 m/s 742 mmHg 56%
11:00 +23°C° 0 mm 0 m/s 742 mmHg 51%
12:00 +23°C° 0 mm 0 m/s 742 mmHg 50%
13:00 +23°C° 0 mm 0 m/s 741 mmHg 50%
14:00 +23°C° 0 mm 0 m/s 741 mmHg 49%
15:00 +22°C° 0 mm 0 m/s 741 mmHg 54%
16:00 +22°C° 0 mm 0 m/s 741 mmHg 59%
17:00 +21°C° 0 mm 0 m/s 741 mmHg 64%
18:00 +19°C° 0 mm 0 m/s 741 mmHg 69%
19:00 +17°C° 0 mm 0 m/s 741 mmHg 74%
20:00 +15°C° 0 mm 0 m/s 741 mmHg 80%
21:00 +15°C° 0 mm 0 m/s 741 mmHg 82%
22:00 +14°C° 0 mm 0 m/s 741 mmHg 84%
23:00 +13°C° 0 mm 0 m/s 741 mmHg 87%
Mostrar mais